Terminal Aerodrome Forecast
Issued by NWS

Home | Current Version | Previous Version | Text Only | Print | Product List | Glossary On
Versions: 1 2 3 4 5 6 7 8 9 10 11 12 13 14
000
FTUS45 KABQ 222121 AAA
TAFGUP
TAF AMD
KGUP 222121Z 2221/2318 20020G30KT P6SM SCT100 BKN200
     FM230200 24012KT P6SM SCT150
     FM230400 VRB05KT P6SM SKC=

USA.gov is the U.S. government's official web portal to all federal, state and local government web resources and services.